This demonstration page uses our WeatherBlox Daily Observations layout. Learn more.

Left ArrowRight Arrow

39.01783, -85.05884

Hourly Observations for August 29, 2020

Temp ( °F °C ) Dew Point ( °F °C ) Humidity (%) Winds ( mph kmh ) Pressure ( in mb ) Visibility ( mi km ) Precip ( " mm )
12:09 am 00:09 Cloudy 72 22.2 69 20.6 91 91 WSW 3 6 29.72 1006 10 16.0934 0 0
12:38 am 00:38 Mostly Cloudy 72 22.2 69 20.6 91 91 SSE 16 26 29.66 1004 10 16.0934 0 0
12:52 am 00:52 Mostly Cloudy 72 22.2 69 20.6 91 91 S 10 17 29.67 1005 10 16.0934 0 0
1:52 am 01:52 Mostly Cloudy 71 21.7 68 20 90 90 WNW 3 6 29.68 1005 10 16.0934 0 0
2:39 am 02:39 Cloudy 71 21.7 69 20.6 94 94 NNW 7 11 29.68 1005 10 16.0934 0 0
2:52 am 02:52 Cloudy 71 21.7 69 20.6 94 94 N 3 6 29.67 1005 10 16.0934 0 0
3:52 am 03:52 Cloudy 71 21.7 69 20.6 94 94 NNW 6 9 29.65 1004 10 16.0934 0 0
4:52 am 04:52 Cloudy 72 22.2 69 20.6 91 91 NW 7 11 29.66 1004 10 16.0934 0 0
5:26 am 05:26 Cloudy 71 21.7 68 20 90 90 WNW 8 13 29.66 1004 10 16.0934 0 0
5:31 am 05:31 Cloudy 71 21.7 68 20 90 90 WNW 7 11 29.66 1004 10 16.0934 0 0
5:52 am 05:52 Cloudy 71 21.7 68 20 90 90 WNW 10 17 29.66 1005 10 16.0934 0 0
6:52 am 06:52 Cloudy 70 21.1 68 20 93 93 WSW 3 6 29.68 1005 10 16.0934 0 0
7:52 am 07:52 Cloudy 71 21.7 68 20 90 90 SW 7 11 29.68 1005 10 16.0934 0 0
8:52 am 08:52 Cloudy 72 22.2 68 20 87 87 WSW 6 9 29.71 1006 10 16.0934 0 0
9:52 am 09:52 Cloudy 74 23.3 69 20.6 85 85 WSW 7 11 29.72 1007 10 16.0934 0 0
10:52 am 10:52 Cloudy 76 24.4 69 20.6 79 79 W 12 19 29.73 1007 10 16.0934 0 0
11:52 am 11:52 Cloudy 76 24.4 70 21.1 82 82 W 7 11 29.74 1007 10 16.0934 0 0
12:52 pm 12:52 Partly Cloudy 81 27.2 70 21.1 69 69 WSW 7 11 29.75 1007 10 16.0934 0 0
1:52 pm 13:52 Partly Cloudy 84 28.9 69 20.6 61 61 W 14 22 29.75 1007 10 16.0934 0 0
2:52 pm 14:52 Partly Cloudy 85 29.4 65 18.3 51 51 WNW 16 26 29.75 1008 10 16.0934 0 0
3:52 pm 15:52 Partly Cloudy 84 28.9 62 16.7 48 48 WNW 15 24 29.75 1007 10 16.0934 0 0
4:52 pm 16:52 Mostly Cloudy 84 28.9 64 17.8 51 51 WNW 14 22 29.74 1007 10 16.0934 0 0
5:52 pm 17:52 Partly Cloudy 82 27.8 63 17.2 53 53 NNW 15 24 29.75 1007 10 16.0934 0 0
6:52 pm 18:52 Mostly Cloudy 81 27.2 62 16.7 53 53 WNW 13 20 29.75 1008 10 16.0934 0 0
7:52 pm 19:52 Mostly Cloudy 77 25 61 16.1 58 58 WNW 8 13 29.77 1008 10 16.0934 0 0
8:52 pm 20:52 Mostly Cloudy 74 23.3 62 16.7 67 67 W 7 11 29.78 1009 10 16.0934 0 0
9:52 pm 21:52 Cloudy 75 23.9 61 16.1 62 62 WNW 9 15 29.8 1009 10 16.0934 0 0
10:52 pm 22:52 Cloudy 74 23.3 60 15.6 62 62 N 10 17 29.81 1010 10 16.0934 0 0
11:52 pm 23:52 Mostly Cloudy 72 22.2 58 14.4 61 61 N 8 13 29.82 1010 10 16.0934 0 0

Powered by AerisWeather